Location: Herm
(49.4830°N, 2.4500°W)
Time: 21:20:47
(UTC+00:00)

NOAA 15 - Pass Details

Date: 02 November 2021
Orbit: 797 x 812 km, 98.7° (Epoch: 27 November)

Event Time Altitude Azimuth Distance (km) Brightness Sun altitude
Rises 19:16:30 0° 177° (S) 3,320 7.7 -24.8°
Reaches altitude 10° 19:18:53 10° 182° (S) 2,394 7.0 -25.2°
Maximum altitude 19:24:04 55° 259° (W) 978 5.3 -26.0°
Drops below altitude 10° 19:29:19 10° 337° (NNW) 2,412 7.4 -26.9°
Sets 19:31:43 0° 342° (NNW) 3,348 8.2 -27.3°
